Regional Weather Roundup
Issued by NWS

Home | Current Version | Previous Version | Graphics & Text | Print | Product List | Glossary Off
Versions: 1 2 3 4 5 6 7 8 9 10 11 12 13 14 15 16 17 18 19 20 21 22 23 24 25 26 27

000
ASUS45 KBOI 312010
RWRID

IDAHO REGIONAL WEATHER ROUNDUP
NATIONAL WEATHER SERVICE BOISE ID
200 PM MDT TUE MAY 31 2016

NOTE: "FAIR" INDICATES FEW OR NO CLOUDS BELOW 12000 FEET
WITH NO SIGNIFICANT WEATHER AND/OR OBSTRUCTIONS TO VISIBILITY

IDZ012-014-312100-
SOUTHWEST IDAHO


CITY           SKY/WX    TMP DP  RH WIND       PRES   REMARKS
BOISE          SUNNY     74  26  16 VRB3      30.08F
CALDWELL       SUNNY     76  33  21 VRB6      30.08F
MOUNTAIN HOME  SUNNY     77  32  19 NE5       30.08F
$$

IDZ016-017-312100-
SOUTHCENTRAL IDAHO


CITY           SKY/WX    TMP DP  RH WIND       PRES   REMARKS
BURLEY         SUNNY     70  33  25 VRB5      30.11F
JEROME         SUNNY     71  30  21 E9        30.12F
TWIN FALLS     SUNNY     69  36  29 CALM      30.11F
$$

IDZ019>023-312100-
SOUTHEAST IDAHO


CITY           SKY/WX    TMP DP  RH WIND       PRES   REMARKS
IDAHO FALLS    SUNNY     66  27  23 NE8G20    30.15F
POCATELLO      MOSUNNY   71  27  19 N6        30.13S
REXBURG        SUNNY     64  27  24 VRB7      30.14F
$$

IDZ006-010-011-018-031-032-312100-
CENTRAL IDAHO MOUNTAINS


CITY           SKY/WX    TMP DP  RH WIND       PRES   REMARKS
MCCALL         SUNNY     66  23  19 W10       30.13F
HAILEY         MOSUNNY   64  37  36 SE7G16    30.16F
STANLEY          N/A     64  23  21 VRB3      30.18F
SALMON         SUNNY     66  28  24 NW5       30.09F
CHALLIS        SUNNY     68  23  18 E5        30.11F
$$

IDZ002-004-006-007-026-312100-
NORTHERN IDAHO


CITY           SKY/WX    TMP DP  RH WIND       PRES   REMARKS
LEWISTON       SUNNY     76  30  18 VRB5      30.10F
LOWELL           N/A     75  35  23 S7        30.07F
COEUR D`ALENE  SUNNY     73  37  27 W5        30.11F
MULLAN PASS    SUNNY     56  27  32 VRB3      30.22S
$$




USA.gov is the U.S. government's official web portal to all federal, state and local government web resources and services.